When you browse on this site, cookies collect data to enhance your experience and personalize the content and advertising you see.
Visit our Privacy Policy to learn more. By continuing to use the site, you agree to this use of cookies and data.
  • In Romania
  • List of Countries
  • For 7 days
  • Water Temperature
  • Satellite Maps
  • Weather Map
  • Weather Widgets
  • user-avatar
    Login

    Hourly Weather Makarovskoe

    Today, 21 April, Sunday

    Time Temperature Precipitation Wind Pressure Humidity
    00:00 +3°C° 0 mm 1 mps 756 mmHg 90%
    01:00 +2°C° 0 mm 1 mps 756 mmHg 91%
    02:00 +2°C° 0 mm 1 mps 756 mmHg 93%
    03:00 +2°C° 0 mm 1 mps 756 mmHg 93%
    04:00 +2°C° 0 mm 1 mps 756 mmHg 94%
    05:00 +2°C° 0 mm 1 mps 757 mmHg 94%
    06:00 +4°C° 0 mm 1 mps 757 mmHg 87%
    07:00 +6°C° 0 mm 1 mps 757 mmHg 80%
    08:00 +8°C° 0 mm 1 mps 757 mmHg 73%
    09:00 +10°C° 0 mm 1 mps 757 mmHg 66%
    10:00 +11°C° 0 mm 1 mps 757 mmHg 59%
    11:00 +13°C° 0 mm 1 mps 757 mmHg 52%
    12:00 +14°C° 0 mm 1 mps 757 mmHg 49%
    13:00 +15°C° 0 mm 1 mps 757 mmHg 46%
    14:00 +15°C° 0 mm 0 mps 757 mmHg 43%
    15:00 +14°C° 0 mm 0 mps 757 mmHg 45%
    16:00 +14°C° 0 mm 1 mps 756 mmHg 47%
    17:00 +14°C° 0 mm 1 mps 756 mmHg 48%
    18:00 +12°C° 0 mm 1 mps 756 mmHg 55%
    19:00 +9°C° 0 mm 0 mps 756 mmHg 61%
    20:00 +8°C° 0 mm 0 mps 756 mmHg 68%
    21:00 +7°C° 0 mm 0 mps 757 mmHg 70%
    22:00 +7°C° 0 mm 0 mps 757 mmHg 72%
    23:00 +6°C° 0 mm 0 mps 757 mmHg 74%

    Tomorrow, 22 April, Monday

    Time Temperature Precipitation Wind Pressure Humidity
    00:00 +6°C° 0 mm 0 mps 757 mmHg 77%
    01:00 +5°C° 0 mm 0 mps 757 mmHg 79%
    02:00 +5°C° 0 mm 0 mps 757 mmHg 81%
    03:00 +6°C° 0 mm 1 mps 757 mmHg 82%
    04:00 +6°C° 0 mm 1 mps 757 mmHg 84%
    05:00 +6°C° 0 mm 1 mps 757 mmHg 85%
    06:00 +8°C° 0 mm 1 mps 757 mmHg 76%
    07:00 +10°C° 0 mm 1 mps 757 mmHg 68%
    08:00 +12°C° 0 mm 1 mps 758 mmHg 60%
    09:00 +13°C° 0 mm 1 mps 757 mmHg 54%
    10:00 +15°C° 0 mm 2 mps 757 mmHg 49%
    11:00 +16°C° 0 mm 2 mps 757 mmHg 44%
    12:00 +17°C° 0 mm 2 mps 757 mmHg 42%
    13:00 +17°C° 0 mm 2 mps 757 mmHg 41%
    14:00 +18°C° 0 mm 3 mps 756 mmHg 39%
    15:00 +17°C° 0 mm 2 mps 756 mmHg 42%
    16:00 +17°C° 0 mm 2 mps 756 mmHg 44%
    17:00 +17°C° 0 mm 2 mps 756 mmHg 46%
    18:00 +15°C° 0 mm 2 mps 756 mmHg 53%
    19:00 +13°C° 0 mm 2 mps 756 mmHg 60%
    20:00 +10°C° 0 mm 2 mps 756 mmHg 67%
    21:00 +10°C° 0 mm 2 mps 756 mmHg 70%
    22:00 +9°C° 0 mm 2 mps 756 mmHg 72%
    23:00 +8°C° 0 mm 2 mps 756 mmHg 75%

    Day after tomorrow, 23 April, Tuesday

    Time Temperature Precipitation Wind Pressure Humidity
    00:00 +8°C° 0 mm 2 mps 756 mmHg 77%
    01:00 +8°C° 0 mm 2 mps 757 mmHg 79%
    02:00 +7°C° 0 mm 2 mps 757 mmHg 81%
    03:00 +7°C° 0 mm 2 mps 757 mmHg 80%
    04:00 +8°C° 0 mm 2 mps 757 mmHg 79%
    05:00 +8°C° 0 mm 2 mps 757 mmHg 78%
    06:00 +9°C° 0 mm 2 mps 757 mmHg 73%
    07:00 +10°C° 0 mm 3 mps 757 mmHg 67%
    08:00 +11°C° 0 mm 3 mps 758 mmHg 62%
    09:00 +13°C° 0 mm 3 mps 758 mmHg 56%
    10:00 +14°C° 0 mm 4 mps 758 mmHg 51%
    11:00 +15°C° 0 mm 4 mps 757 mmHg 45%
    12:00 +17°C° 0 mm 4 mps 757 mmHg 43%
    13:00 +18°C° 0 mm 4 mps 757 mmHg 40%
    14:00 +19°C° 0 mm 5 mps 757 mmHg 38%
    15:00 +18°C° 0 mm 4 mps 757 mmHg 40%
    16:00 +18°C° 0 mm 3 mps 756 mmHg 42%
    17:00 +18°C° 0 mm 3 mps 756 mmHg 44%
    18:00 +16°C° 0 mm 3 mps 756 mmHg 51%
    19:00 +14°C° 0 mm 2 mps 756 mmHg 57%
    20:00 +12°C° 0 mm 2 mps 756 mmHg 64%
    21:00 +10°C° 0 mm 2 mps 757 mmHg 67%
    22:00 +9°C° 0 mm 2 mps 757 mmHg 71%
    23:00 +9°C° 0 mm 2 mps 757 mmHg 74%

    24 April, Wednesday

    Time Temperature Precipitation Wind Pressure Humidity
    00:00 +8°C° 0 mm 2 mps 757 mmHg 75%
    01:00 +8°C° 0 mm 2 mps 758 mmHg 77%
    02:00 +7°C° 0 mm 2 mps 758 mmHg 79%
    03:00 +7°C° 0 mm 2 mps 758 mmHg 78%
    04:00 +7°C° 0 mm 2 mps 758 mmHg 78%
    05:00 +7°C° 0 mm 2 mps 758 mmHg 77%
    06:00 +9°C° 0 mm 2 mps 758 mmHg 69%
    07:00 +11°C° 0 mm 3 mps 758 mmHg 61%
    08:00 +13°C° 0 mm 3 mps 758 mmHg 53%
    09:00 +14°C° 0 mm 3 mps 758 mmHg 49%
    10:00 +17°C° 0 mm 3 mps 758 mmHg 44%
    11:00 +18°C° 0 mm 3 mps 758 mmHg 40%
    12:00 +19°C° 0 mm 3 mps 758 mmHg 39%
    13:00 +19°C° 0 mm 3 mps 758 mmHg 37%
    14:00 +20°C° 0 mm 3 mps 758 mmHg 36%
    15:00 +19°C° 0 mm 3 mps 758 mmHg 39%
    16:00 +19°C° 0 mm 2 mps 757 mmHg 41%
    17:00 +18°C° 0 mm 2 mps 757 mmHg 44%
    18:00 +16°C° 0 mm 2 mps 757 mmHg 50%
    19:00 +14°C° 0 mm 1 mps 757 mmHg 56%
    20:00 +12°C° 0 mm 1 mps 757 mmHg 62%
    21:00 +12°C° 0 mm 1 mps 757 mmHg 63%
    22:00 +11°C° 0 mm 1 mps 757 mmHg 65%
    23:00 +9°C° 0 mm 0 mps 758 mmHg 67%

    25 April, Thursday

    Time Temperature Precipitation Wind Pressure Humidity
    00:00 +9°C° 0 mm 0 mps 758 mmHg 68%
    01:00 +9°C° 0 mm 0 mps 758 mmHg 69%
    02:00 +8°C° 0 mm 0 mps 758 mmHg 70%
    03:00 +8°C° 0 mm 0 mps 758 mmHg 71%
    04:00 +9°C° 0 mm 1 mps 758 mmHg 72%
    05:00 +9°C° 0 mm 1 mps 758 mmHg 73%
    06:00 +11°C° 0 mm 1 mps 758 mmHg 65%
    07:00 +14°C° 0 mm 1 mps 758 mmHg 58%
    08:00 +16°C° 0 mm 1 mps 758 mmHg 50%
    09:00 +19°C° 0 mm 1 mps 757 mmHg 45%
    10:00 +20°C° 0 mm 1 mps 757 mmHg 40%
    11:00 +20°C° 0 mm 2 mps 757 mmHg 36%
    12:00 +21°C° 0 mm 2 mps 756 mmHg 35%
    13:00 +21°C° 0 mm 2 mps 756 mmHg 35%
    14:00 +21°C° 0 mm 3 mps 755 mmHg 35%
    15:00 +21°C° 0 mm 2 mps 755 mmHg 38%
    16:00 +20°C° 0 mm 2 mps 755 mmHg 40%
    17:00 +20°C° 0 mm 2 mps 754 mmHg 43%
    18:00 +19°C° 0 mm 1 mps 754 mmHg 49%
    19:00 +16°C° 0 mm 1 mps 754 mmHg 55%
    20:00 +14°C° 0 mm 1 mps 753 mmHg 60%
    21:00 +13°C° 0 mm 1 mps 753 mmHg 62%
    22:00 +12°C° 0 mm 1 mps 753 mmHg 64%
    23:00 +12°C° 0 mm 1 mps 753 mmHg 66%

    26 April, Friday

    Time Temperature Precipitation Wind Pressure Humidity
    00:00 +11°C° 0 mm 1 mps 753 mmHg 68%
    01:00 +11°C° 0 mm 1 mps 753 mmHg 70%
    02:00 +10°C° 0 mm 1 mps 752 mmHg 71%
    03:00 +10°C° 0 mm 1 mps 752 mmHg 73%
    04:00 +10°C° 0 mm 1 mps 752 mmHg 74%
    05:00 +10°C° 0 mm 1 mps 751 mmHg 75%
    06:00 +12°C° 0 mm 2 mps 751 mmHg 69%
    07:00 +14°C° 0 mm 2 mps 751 mmHg 62%
    08:00 +16°C° 0 mm 2 mps 750 mmHg 56%
    09:00 +17°C° 0 mm 3 mps 750 mmHg 51%
    10:00 +19°C° 0 mm 3 mps 750 mmHg 46%
    11:00 +20°C° 0 mm 4 mps 749 mmHg 41%
    12:00 +21°C° 0 mm 4 mps 748 mmHg 40%
    13:00 +21°C° 0 mm 4 mps 748 mmHg 39%
    14:00 +22°C° 0 mm 4 mps 747 mmHg 38%
    15:00 +21°C° 0 mm 4 mps 747 mmHg 41%
    16:00 +21°C° 0 mm 3 mps 746 mmHg 44%
    17:00 +20°C° 0 mm 2 mps 745 mmHg 47%
    18:00 +19°C° 0.2 mm 2 mps 745 mmHg 55%
    19:00 +17°C° 0.2 mm 2 mps 745 mmHg 62%
    20:00 +15°C° 0.2 mm 2 mps 745 mmHg 69%
    21:00 +15°C° 0.9 mm 2 mps 745 mmHg 75%
    22:00 +14°C° 0.9 mm 2 mps 745 mmHg 81%
    23:00 +13°C° 0.9 mm 3 mps 745 mmHg 86%
    Show more